NOAA 16 DEB, 41288

Orbit data source: Space-Track

NOAA 16 DEB, 41288 is space debris in SSO originally from a launch on Thu, 21 Sep 2000 UTC launched from the Air Force Western Test Range (AFWTR). Debris objects in space refer to the collection of defunct objects orbiting the Earth. Examples of debris include non-operational satellites, rocket bodies, and fragments generated from explosions, collisions, or faulty payload assembly.

Loading next visibility...
Identifier
41288, 2000-055GQ
Orbit
SSO
Country
Flag of USUS
Related business
Manufacturer
Unknown
Mission
Spacecraft
Bus & Motor
Unknown
Mass
Unknown
Launch date (UTC)
2000-09-21 (25 years ago)
Launch vehicle
Unknown
Launch site
Air Force Western Test Range (AFWTR)
Object type
Payload
Rocket body
Debris
Shape & HBR
Unknown
Radar Cross Section
Small (<0.1 m²)

Expand to show TLE details & history
Last TLE update: 2 days ago

TLE from 2 days ago
0 NOAA 16 DEB
1 41288U 00055GQ  25256.54197126  .00005686  00000-0  21428-2 0  9992
2 41288  98.9029 351.6941 0023765 310.0682  49.8416 14.31655384500663
Epoch: 2025-09-13T13:00Z
TLE epoch observation values (Epoch: 2025-09-13T13:00:26.316Z)
Latitude
-0.00006°
Longitude
163.81062°
Altitude
778.168 km
Speed
7.471 km/s
True Right ascension
23h 26m 46s
True Declination
0° 00' 00"
Sunlit
Object was in full shadow at epoch
Visualization orbit readout
Latitude
Unknown
Longitude
Unknown
Altitude
Unknown
Speed
Unknown
Apparent Right ascension
Unknown
Apparent Declination
Unknown
Sunlit
N/A
Visualization observer readout
Local Sidereal Time
08:40:10
Azimuth
Unknown
Elevation
Unknown
Doppler factor
Unknown
Orbital elements
Apogee altitude
800.375 km
Perigee altitude
766.336 km
Semi-major axis
7,161.492 km
Eccentricity
0.00238
Inclination
98.9029°
RAAN
351.6941°
Arg. of periapsis
310.0682°
True anomaly
50.05013°
Mean anomaly
49.8416°
Eccentric anomaly
49.94582°
Mean motion
3.58128 °/min
Orbital period
100.52 mins
BSTAR
0.0021428
Loading maneuver chart data...
Computing Atmospheric mass density...
Loading historical data...
Loading historical data...
Loading historical data...
Loading historical data...
Loading historical data...
Loading historical data...
Loading historical data...

Documentation

Showing up to 5 results
|